This demonstration page uses our WeatherBlox Daily Observations layout. Learn more.

Left ArrowRight Arrow

53.62937, 11.41316

Hourly Observations for November 23, 2018

Temp ( °F °C ) Dew Point ( °F °C ) Humidity (%) Winds ( mph kmh ) Pressure ( in mb ) Visibility ( mi km ) Precip ( " mm )
6:50 am 06:50 Mostly Cloudy 34 1 30 -1 87 87 ESE 6 9 30.21 1023 3 5 N/A
7:20 am 07:20 Mostly Cloudy 34 1 32 0 93 93 ESE 6 9 30.21 1023 3 5 N/A
7:50 am 07:50 Cloudy with Mist and Fog 34 1 32 0 93 93 ESE 5 7 30.21 1023 3 5 N/A
8:20 am 08:20 Cloudy with Mist and Fog 34 1 32 0 93 93 ESE 6 9 30.21 1023 3 5 N/A
8:50 am 08:50 Cloudy with Mist and Fog 34 1 32 0 93 93 ESE 5 7 30.21 1023 3 4 N/A
9:20 am 09:20 Cloudy with Mist and Fog 34 1 32 0 93 93 ESE 5 7 30.21 1023 3 5 N/A
9:50 am 09:50 Cloudy with Mist and Fog 34 1 32 0 93 93 ESE 6 9 30.21 1023 3 5 N/A
10:20 am 10:20 Cloudy with Mist and Fog 34 1 32 0 93 93 E 5 7 30.18 1022 3 5 N/A
10:50 am 10:50 Cloudy with Mist and Fog 34 1 32 0 93 93 SE 5 7 30.18 1022 3 5 N/A
11:20 am 11:20 Cloudy with Mist and Fog 34 1 32 0 93 93 ESE 6 9 30.18 1022 3 5 N/A
11:50 am 11:50 Cloudy with Mist and Fog 36 2 32 0 87 87 SE 5 7 30.18 1022 3 5 N/A
12:20 pm 12:20 Cloudy 36 2 32 0 87 87 SE 6 9 30.15 1021 4 6 N/A
12:50 pm 12:50 Cloudy 36 2 32 0 87 87 ESE 6 9 30.15 1021 4 6 N/A
1:20 pm 13:20 Cloudy 36 2 32 0 87 87 ESE 6 9 30.15 1021 4 6 N/A
1:50 pm 13:50 Cloudy 36 2 32 0 87 87 ESE 5 7 30.15 1021 4 6 N/A
2:20 pm 14:20 Cloudy 36 2 32 0 87 87 ESE 5 7 30.12 1020 4 6 N/A
3:20 pm 15:20 Cloudy 36 2 32 0 87 87 ESE 3 6 30.12 1020 3 5 N/A
4:20 pm 16:20 Cloudy 36 2 32 0 87 87 ESE 5 7 30.12 1020 3 5 N/A
5:20 pm 17:20 Cloudy with Mist and Fog 36 2 32 0 87 87 ESE 3 6 30.12 1020 3 5 N/A
5:50 pm 17:50 Cloudy with Mist and Fog 36 2 34 1 93 93 SE 3 6 30.09 1019 3 5 N/A
6:20 pm 18:20 Cloudy with Mist and Fog 36 2 34 1 93 93 SE 5 7 30.09 1019 3 5 N/A
6:50 pm 18:50 Cloudy with Mist and Fog 36 2 34 1 93 93 SSE 5 7 30.09 1019 3 5 N/A

Powered by AerisWeather